| time (UTC) | temp F | wind direction | speed MPH | gust MPH | rain 1hr in | rain 24hr in | rain mn in | humidity % | barometer mb |
| 20260506181545 | 86 | 49 | 4.0 | 10.0 | 0.00 | 0.00 | 0.00 | 54 | 1016.4 |
| 20260506181034 | 85 | 61 | 5.0 | 11.0 | 0.00 | 0.00 | 0.00 | 58 | 1016.5 |
| 20260506180537 | 85 | 53 | 3.0 | 11.0 | 0.00 | 0.00 | 0.00 | 59 | 1016.5 |
| 20260506180046 | 85 | 90 | 5.0 | 11.0 | 0.00 | 0.00 | 0.00 | 56 | 1016.6 |
| 20260506175535 | 85 | 355 | 4.0 | 11.0 | 0.00 | 0.00 | 0.00 | 55 | 1016.6 |
| 20260506175034 | 86 | 40 | 8.0 | 11.0 | 0.00 | 0.00 | 0.00 | 56 | 1016.7 |
| 20260506174545 | 85 | 167 | 5.0 | 11.0 | 0.00 | 0.00 | 0.00 | 56 | 1016.8 |
| 20260506174035 | 86 | 69 | 3.0 | 13.0 | 0.00 | 0.00 | 0.00 | 56 | 1016.8 |
| 20260506173536 | 85 | 86 | 3.0 | 13.0 | 0.00 | 0.00 | 0.00 | 55 | 1016.8 |
| 20260506173107 | 85 | 88 | 6.0 | 13.0 | 0.00 | 0.00 | 0.00 | 56 | 1016.9 |
| 20260506172534 | 85 | 41 | 4.0 | 13.0 | 0.00 | 0.00 | 0.00 | 59 | 1016.9 |
| 20260506172034 | 85 | 57 | 6.0 | 13.0 | 0.00 | 0.00 | 0.00 | 58 | 1017.0 |
| 20260506171554 | 85 | 35 | 6.0 | 12.0 | 0.00 | 0.00 | 0.00 | 58 | 1016.9 |
| 20260506171035 | 85 | 5 | 3.0 | 10.0 | 0.00 | 0.00 | 0.00 | 56 | 1017.0 |
| 20260506170533 | 84 | 63 | 4.0 | 12.0 | 0.00 | 0.00 | 0.00 | 56 | 1017.1 |
| 20260506170045 | 84 | 76 | 6.0 | 12.0 | 0.00 | 0.00 | 0.00 | 58 | 1017.2 |
| 20260506165538 | 84 | 51 | 3.0 | 10.0 | 0.00 | 0.00 | 0.00 | 58 | 1017.2 |
| 20260506165034 | 84 | 304 | 3.0 | 12.0 | 0.00 | 0.00 | 0.00 | 57 | 1017.2 |
| 20260506164546 | 84 | 67 | 8.0 | 12.0 | 0.00 | 0.00 | 0.00 | 57 | 1017.3 |
| 20260506164035 | 85 | 137 | 6.0 | 10.0 | 0.00 | 0.00 | 0.00 | 56 | 1017.3 |
| 20260506163534 | 85 | 69 | 4.0 | 11.0 | 0.00 | 0.00 | 0.00 | 59 | 1017.2 |
| 20260506163059 | 84 | 98 | 5.0 | 11.0 | 0.00 | 0.00 | 0.00 | 59 | 1017.3 |
| 20260506162534 | 84 | 98 | 5.0 | 11.0 | 0.00 | 0.00 | 0.00 | 56 | 1017.4 |
| 20260506162037 | 84 | 47 | 5.0 | 10.0 | 0.00 | 0.00 | 0.00 | 56 | 1017.4 |
| 20260506161548 | 84 | 74 | 4.0 | 11.0 | 0.00 | 0.00 | 0.00 | 57 | 1017.5 |
| 20260506161036 | 83 | 170 | 4.0 | 11.0 | 0.00 | 0.00 | 0.00 | 57 | 1017.5 |
| 20260506160535 | 84 | 68 | 3.0 | 9.0 | 0.00 | 0.00 | 0.00 | 61 | 1017.5 |
| 20260506160050 | 83 | 79 | 4.0 | 11.0 | 0.00 | 0.00 | 0.00 | 61 | 1017.5 |
| 20260506155534 | 83 | 61 | 5.0 | 11.0 | 0.00 | 0.00 | 0.00 | 59 | 1017.6 |
| 20260506155034 | 83 | 75 | 4.0 | 11.0 | 0.00 | 0.00 | 0.00 | 56 | 1017.7 |
| 20260506154555 | 83 | 76 | 7.0 | 11.0 | 0.00 | 0.00 | 0.00 | 57 | 1017.6 |
| 20260506154031 | 82 | 80 | 4.0 | 10.0 | 0.00 | 0.00 | 0.00 | 61 | 1017.6 |
| 20260506153531 | 82 | 105 | 3.0 | 11.0 | 0.00 | 0.00 | 0.00 | 63 | 1017.5 |
| 20260506153049 | 82 | 57 | 7.0 | 11.0 | 0.00 | 0.00 | 0.00 | 67 | 1017.5 |
| 20260506152533 | 82 | 77 | 5.0 | 10.0 | 0.00 | 0.00 | 0.00 | 67 | 1017.5 |
| 20260506152033 | 81 | 36 | 4.0 | 10.0 | 0.00 | 0.00 | 0.00 | 68 | 1017.6 |
| 20260506151546 | 81 | 78 | 5.0 | 10.0 | 0.00 | 0.00 | 0.00 | 70 | 1017.7 |
| 20260506151034 | 81 | 97 | 6.0 | 10.0 | 0.00 | 0.00 | 0.00 | 68 | 1017.7 |
| 20260506150534 | 81 | 107 | 5.0 | 9.0 | 0.00 | 0.00 | 0.00 | 72 | 1017.6 |
| 20260506150044 | 81 | 84 | 4.0 | 9.0 | 0.00 | 0.00 | 0.00 | 72 | 1017.6 |
| 20260506145536 | 80 | 80 | 5.0 | 9.0 | 0.00 | 0.00 | 0.00 | 72 | 1017.6 |
| 20260506145039 | 80 | 100 | 4.0 | 10.0 | 0.00 | 0.00 | 0.00 | 72 | 1017.6 |
| 20260506144550 | 80 | 101 | 3.0 | 10.0 | 0.00 | 0.00 | 0.00 | 73 | 1017.5 |
| 20260506144033 | 80 | 84 | 3.0 | 9.0 | 0.00 | 0.00 | 0.00 | 75 | 1017.5 |
| 20260506143533 | 80 | 86 | 3.0 | 9.0 | 0.00 | 0.00 | 0.00 | 76 | 1017.5 |
| 20260506143045 | 79 | 68 | 6.0 | 9.0 | 0.00 | 0.00 | 0.00 | 75 | 1017.5 |
| 20260506142533 | 79 | 103 | 6.0 | 9.0 | 0.00 | 0.00 | 0.00 | 75 | 1017.4 |
| 20260506142034 | 79 | 26 | 4.0 | 8.0 | 0.00 | 0.00 | 0.00 | 77 | 1017.5 |
| 20260506141549 | 79 | 92 | 4.0 | 9.0 | 0.00 | 0.00 | 0.00 | 78 | 1017.5 |
| 20260506141035 | 78 | 72 | 4.0 | 10.0 | 0.00 | 0.00 | 0.00 | 79 | 1017.5 |
| 20260506140535 | 77 | 78 | 6.0 | 10.0 | 0.00 | 0.00 | 0.00 | 78 | 1017.5 |
| 20260506140053 | 77 | 82 | 6.0 | 11.0 | 0.00 | 0.00 | 0.00 | 79 | 1017.4 |
| 20260506135535 | 77 | 73 | 5.0 | 11.0 | 0.00 | 0.00 | 0.00 | 81 | 1017.3 |
| 20260506135034 | 77 | 77 | 4.0 | 10.0 | 0.00 | 0.00 | 0.00 | 82 | 1017.3 |
| 20260506134549 | 76 | 65 | 4.0 | 10.0 | 0.00 | 0.00 | 0.00 | 84 | 1017.3 |
| 20260506134035 | 76 | 81 | 6.0 | 10.0 | 0.00 | 0.00 | 0.00 | 84 | 1017.2 |
| 20260506133535 | 75 | 77 | 3.0 | 9.0 | 0.00 | 0.00 | 0.00 | 86 | 1017.1 |
| 20260506133050 | 75 | 92 | 5.0 | 9.0 | 0.00 | 0.00 | 0.00 | 86 | 1017.1 |
| 20260506132534 | 75 | 63 | 4.0 | 8.0 | 0.00 | 0.00 | 0.00 | 87 | 1017.1 |
| 20260506132032 | 74 | 48 | 4.0 | 7.0 | 0.00 | 0.00 | 0.00 | 88 | 1017.1 |
| 20260506131546 | 73 | 92 | 4.0 | 7.0 | 0.00 | 0.00 | 0.00 | 89 | 1017.1 |
| 20260506131036 | 73 | 60 | 3.0 | 8.0 | 0.00 | 0.00 | 0.00 | 91 | 1017.2 |
| 20260506130534 | 72 | 62 | 5.0 | 8.0 | 0.00 | 0.00 | 0.00 | 93 | 1017.1 |
| 20260506130048 | 71 | 76 | 3.0 | 8.0 | 0.00 | 0.00 | 0.00 | 94 | 1017.0 |
| 20260506125532 | 71 | 78 | 2.0 | 4.0 | 0.00 | 0.00 | 0.00 | 95 | 1016.9 |
| 20260506125033 | 70 | 79 | 2.0 | 4.0 | 0.00 | 0.00 | 0.00 | 95 | 1016.8 |
| 20260506124544 | 69 | 80 | 2.0 | 4.0 | 0.00 | 0.00 | 0.00 | 95 | 1016.9 |
| 20260506124032 | 69 | 61 | 2.0 | 4.0 | 0.00 | 0.00 | 0.00 | 95 | 1016.9 |
| 20260506123534 | 68 | 78 | 1.0 | 3.0 | 0.00 | 0.00 | 0.00 | 95 | 1016.8 |
| 20260506123043 | 68 | 23 | 0.0 | 2.0 | 0.00 | 0.00 | 0.00 | 95 | 1016.9 |
| 20260506122533 | 67 | 0 | 0.0 | 1.0 | 0.00 | 0.00 | 0.00 | 95 | 1016.8 |
| 20260506122034 | 66 | 0 | 0.0 | 0.0 | 0.00 | 0.00 | 0.00 | 95 | 1016.8 |
| 20260506121543 | 65 | 0 | 0.0 | 0.0 | 0.00 | 0.00 | 0.00 | 95 | 1016.7 |
| 20260506121034 | 64 | 0 | 0.0 | 1.0 | 0.00 | 0.00 | 0.00 | 95 | 1016.5 |
| 20260506120534 | 63 | 0 | 0.0 | 1.0 | 0.00 | 0.00 | 0.00 | 95 | 1016.6 |
| 20260506120106 | 63 | 0 | 0.0 | 1.0 | 0.00 | 0.00 | 0.00 | 95 | 1016.6 |
| 20260506115534 | 63 | 304 | 0.0 | 1.0 | 0.00 | 0.00 | 0.00 | 95 | 1016.5 |
| 20260506115034 | 62 | 0 | 0.0 | 1.0 | 0.00 | 0.00 | 0.00 | 95 | 1016.6 |
| 20260506114551 | 62 | 0 | 0.0 | 0.0 | 0.00 | 0.00 | 0.00 | 95 | 1016.7 |
| 20260506114035 | 61 | 0 | 0.0 | 0.0 | 0.00 | 0.00 | 0.00 | 95 | 1016.7 |
| 20260506113535 | 60 | 0 | 0.0 | 0.0 | 0.00 | 0.00 | 0.00 | 94 | 1016.6 |
| 20260506113044 | 60 | 0 | 0.0 | 0.0 | 0.00 | 0.00 | 0.00 | 94 | 1016.6 |
| 20260506112535 | 60 | 0 | 0.0 | 0.0 | 0.00 | 0.00 | 0.00 | 94 | 1016.7 |
| 20260506112034 | 59 | 0 | 0.0 | 0.0 | 0.00 | 0.00 | 0.00 | 93 | 1016.7 |
| 20260506111551 | 59 | 0 | 0.0 | 0.0 | 0.00 | 0.00 | 0.00 | 93 | 1016.6 |
| 20260506111035 | 59 | 0 | 0.0 | 0.0 | 0.00 | 0.00 | 0.00 | 93 | 1016.6 |
| 20260506110534 | 60 | 0 | 0.0 | 0.0 | 0.00 | 0.00 | 0.00 | 94 | 1016.6 |
| 20260506110050 | 59 | 0 | 0.0 | 0.0 | 0.00 | 0.00 | 0.00 | 94 | 1016.5 |
| 20260506105537 | 59 | 0 | 0.0 | 0.0 | 0.00 | 0.00 | 0.00 | 94 | 1016.4 |
| 20260506105036 | 59 | 0 | 0.0 | 0.0 | 0.00 | 0.00 | 0.00 | 94 | 1016.3 |
| 20260506104548 | 59 | 0 | 0.0 | 0.0 | 0.00 | 0.00 | 0.00 | 94 | 1016.2 |
| 20260506104034 | 59 | 0 | 0.0 | 0.0 | 0.00 | 0.00 | 0.00 | 93 | 1016.1 |
| 20260506103534 | 59 | 0 | 0.0 | 1.0 | 0.00 | 0.00 | 0.00 | 93 | 1016.1 |
| 20260506103046 | 59 | 0 | 0.0 | 1.0 | 0.00 | 0.00 | 0.00 | 93 | 1016.0 |
| 20260506102534 | 59 | 0 | 0.0 | 1.0 | 0.00 | 0.00 | 0.00 | 94 | 1016.0 |
| 20260506102034 | 59 | 0 | 0.0 | 0.0 | 0.00 | 0.00 | 0.00 | 94 | 1016.0 |
| 20260506101545 | 59 | 0 | 0.0 | 2.0 | 0.00 | 0.00 | 0.00 | 93 | 1015.7 |
| 20260506101033 | 59 | 0 | 0.0 | 2.0 | 0.00 | 0.00 | 0.00 | 93 | 1015.9 |
| 20260506100533 | 59 | 0 | 1.0 | 2.0 | 0.00 | 0.00 | 0.00 | 93 | 1016.0 |
| 20260506100050 | 59 | 301 | 0.0 | 2.0 | 0.00 | 0.00 | 0.00 | 93 | 1016.1 |
| 20260506095534 | 59 | 0 | 0.0 | 0.0 | 0.00 | 0.00 | 0.00 | 93 | 1015.9 |
| 20260506095035 | 59 | 0 | 0.0 | 0.0 | 0.00 | 0.00 | 0.00 | 93 | 1015.6 |
| 20260506094550 | 59 | 0 | 0.0 | 0.0 | 0.00 | 0.00 | 0.00 | 93 | 1015.6 |
| 20260506094036 | 59 | 0 | 0.0 | 0.0 | 0.00 | 0.00 | 0.00 | 93 | 1015.8 |
| 20260506093537 | 59 | 0 | 0.0 | 0.0 | 0.00 | 0.00 | 0.00 | 93 | 1016.0 |
| 20260506093106 | 59 | 0 | 0.0 | 0.0 | 0.00 | 0.00 | 0.00 | 93 | 1015.9 |
| 20260506092534 | 59 | 0 | 0.0 | 0.0 | 0.00 | 0.00 | 0.00 | 93 | 1015.8 |
| 20260506092034 | 59 | 0 | 0.0 | 0.0 | 0.00 | 0.00 | 0.00 | 93 | 1015.7 |
| 20260506091547 | 59 | 0 | 0.0 | 0.0 | 0.00 | 0.00 | 0.00 | 93 | 1015.8 |
| 20260506091034 | 59 | 0 | 0.0 | 0.0 | 0.00 | 0.00 | 0.00 | 93 | 1015.7 |
| 20260506090533 | 60 | 0 | 0.0 | 0.0 | 0.00 | 0.00 | 0.00 | 93 | 1015.6 |
| 20260506090051 | 60 | 0 | 0.0 | 0.0 | 0.00 | 0.00 | 0.00 | 93 | 1015.7 |
| 20260506085534 | 60 | 0 | 0.0 | 0.0 | 0.00 | 0.00 | 0.00 | 93 | 1015.6 |
| 20260506085034 | 60 | 0 | 0.0 | 0.0 | 0.00 | 0.00 | 0.00 | 93 | 1015.5 |
| 20260506084545 | 60 | 0 | 0.0 | 0.0 | 0.00 | 0.00 | 0.00 | 93 | 1015.6 |
| 20260506084038 | 60 | 0 | 0.0 | 0.0 | 0.00 | 0.00 | 0.00 | 93 | 1015.5 |
| 20260506083534 | 60 | 0 | 0.0 | 0.0 | 0.00 | 0.00 | 0.00 | 93 | 1015.6 |
| 20260506083043 | 60 | 0 | 0.0 | 0.0 | 0.00 | 0.00 | 0.00 | 93 | 1015.7 |
| 20260506082534 | 60 | 0 | 0.0 | 0.0 | 0.00 | 0.00 | 0.00 | 93 | 1015.7 |
| 20260506082034 | 60 | 0 | 0.0 | 0.0 | 0.00 | 0.00 | 0.00 | 93 | 1015.7 |
| 20260506081544 | 60 | 0 | 0.0 | 0.0 | 0.00 | 0.00 | 0.00 | 93 | 1015.7 |
| 20260506081034 | 60 | 0 | 0.0 | 0.0 | 0.00 | 0.00 | 0.00 | 93 | 1015.7 |
| 20260506080534 | 60 | 0 | 0.0 | 0.0 | 0.00 | 0.00 | 0.00 | 93 | 1015.7 |
| 20260506073045 | 61 | 0 | 0.0 | 0.0 | 0.00 | 0.00 | 0.00 | 92 | 1015.7 |
| 20260506072535 | 61 | 0 | 0.0 | 0.0 | 0.00 | 0.00 | 0.00 | 93 | 1015.8 |
| 20260506072033 | 61 | 0 | 0.0 | 0.0 | 0.00 | 0.00 | 0.00 | 93 | 1015.9 |
| 20260506071546 | 61 | 0 | 0.0 | 0.0 | 0.00 | 0.00 | 0.00 | 92 | 1016.1 |
| 20260506071033 | 61 | 0 | 0.0 | 0.0 | 0.00 | 0.00 | 0.00 | 92 | 1016.2 |
| 20260506070536 | 61 | 0 | 0.0 | 0.0 | 0.00 | 0.00 | 0.00 | 92 | 1016.0 |
| 20260506062034 | 61 | 0 | 0.0 | 0.0 | 0.00 | 0.00 | 0.00 | 92 | 1016.1 |
| 20260506061557 | 61 | 0 | 0.0 | 0.0 | 0.00 | 0.00 | 0.00 | 92 | 1016.2 |
| 20260506061034 | 62 | 0 | 0.0 | 0.0 | 0.00 | 0.00 | 0.00 | 92 | 1016.1 |
| 20260506060533 | 62 | 0 | 0.0 | 0.0 | 0.00 | 0.00 | 0.00 | 91 | 1016.2 |
| 20260506051033 | 62 | 0 | 0.0 | 0.0 | 0.00 | 0.00 | 0.00 | 90 | 1016.3 |
| 20260506050534 | 62 | 0 | 0.0 | 0.0 | 0.00 | 0.00 | 0.00 | 90 | 1016.3 |
| 20260506045033 | 62 | 0 | 0.0 | 0.0 | 0.00 | 0.00 | 0.00 | 90 | 1016.1 |
| 20260506044601 | 62 | 0 | 0.0 | 0.0 | 0.00 | 0.00 | 0.00 | 90 | 1016.2 |
| 20260506044033 | 62 | 0 | 0.0 | 0.0 | 0.00 | 0.00 | 0.00 | 90 | 1016.2 |
| 20260506043532 | 62 | 0 | 0.0 | 0.0 | 0.00 | 0.00 | 0.00 | 90 | 1016.3 |
| 20260506043051 | 62 | 0 | 0.0 | 0.0 | 0.00 | 0.00 | 0.00 | 89 | 1016.3 |
| 20260506042534 | 63 | 0 | 0.0 | 0.0 | 0.00 | 0.00 | 0.00 | 89 | 1016.4 |
| 20260506042033 | 63 | 0 | 0.0 | 0.0 | 0.00 | 0.00 | 0.00 | 89 | 1016.5 |
| 20260506041552 | 63 | 0 | 0.0 | 0.0 | 0.00 | 0.00 | 0.00 | 89 | 1016.5 |
| 20260506041034 | 63 | 0 | 0.0 | 0.0 | 0.00 | 0.00 | 0.00 | 89 | 1016.6 |
| 20260506040538 | 63 | 0 | 0.0 | 0.0 | 0.00 | 0.00 | 0.00 | 89 | 1016.7 |
| 20260506040058 | 64 | 0 | 0.0 | 0.0 | 0.00 | 0.00 | 0.00 | 89 | 1016.7 |
| 20260506035534 | 64 | 0 | 0.0 | 0.0 | 0.00 | 0.00 | 0.00 | 88 | 1016.7 |
| 20260506035032 | 64 | 0 | 0.0 | 0.0 | 0.00 | 0.00 | 0.00 | 88 | 1016.7 |
| 20260506034546 | 64 | 0 | 0.0 | 0.0 | 0.00 | 0.00 | 0.00 | 88 | 1016.8 |
| 20260506034033 | 64 | 0 | 0.0 | 0.0 | 0.00 | 0.00 | 0.00 | 88 | 1016.9 |
| 20260506033531 | 64 | 0 | 0.0 | 0.0 | 0.00 | 0.00 | 0.00 | 88 | 1016.9 |
| 20260506033050 | 64 | 0 | 0.0 | 0.0 | 0.00 | 0.00 | 0.00 | 87 | 1017.0 |
| 20260506032534 | 65 | 0 | 0.0 | 0.0 | 0.00 | 0.00 | 0.00 | 87 | 1017.0 |
| 20260506032034 | 65 | 0 | 0.0 | 0.0 | 0.00 | 0.00 | 0.00 | 87 | 1016.9 |
| 20260506031547 | 65 | 0 | 0.0 | 0.0 | 0.00 | 0.00 | 0.00 | 86 | 1016.8 |
| 20260506031036 | 65 | 0 | 0.0 | 3.0 | 0.00 | 0.00 | 0.00 | 86 | 1016.8 |
| 20260506030534 | 65 | 0 | 0.0 | 3.0 | 0.00 | 0.00 | 0.00 | 86 | 1016.8 |
| 20260506030045 | 66 | 301 | 2.0 | 3.0 | 0.00 | 0.00 | 0.00 | 86 | 1016.7 |
| 20260506025534 | 66 | 312 | 0.0 | 0.0 | 0.00 | 0.00 | 0.00 | 86 | 1016.6 |
| 20260506025033 | 66 | 0 | 0.0 | 0.0 | 0.00 | 0.00 | 0.00 | 86 | 1016.7 |
| 20260506024546 | 66 | 0 | 0.0 | 0.0 | 0.00 | 0.00 | 0.00 | 85 | 1016.7 |
| 20260506024033 | 66 | 0 | 0.0 | 0.0 | 0.00 | 0.00 | 0.00 | 85 | 1016.6 |
| 20260506023535 | 67 | 0 | 0.0 | 0.0 | 0.00 | 0.00 | 0.00 | 85 | 1016.5 |
| 20260506023052 | 67 | 0 | 0.0 | 0.0 | 0.00 | 0.00 | 0.00 | 85 | 1016.4 |
| 20260506022534 | 67 | 0 | 0.0 | 0.0 | 0.00 | 0.00 | 0.00 | 85 | 1016.3 |
| 20260506022033 | 67 | 0 | 0.0 | 0.0 | 0.00 | 0.00 | 0.00 | 84 | 1016.2 |
| 20260506021547 | 68 | 0 | 0.0 | 0.0 | 0.00 | 0.00 | 0.00 | 84 | 1016.3 |
| 20260506021031 | 68 | 0 | 0.0 | 0.0 | 0.00 | 0.00 | 0.00 | 84 | 1016.3 |
| 20260506020533 | 68 | 0 | 0.0 | 1.0 | 0.00 | 0.00 | 0.00 | 84 | 1016.3 |
| 20260506020113 | 68 | 0 | 0.0 | 2.0 | 0.00 | 0.00 | 0.00 | 84 | 1016.4 |
| 20260506015534 | 68 | 38 | 1.0 | 2.0 | 0.00 | 0.00 | 0.00 | 84 | 1016.3 |
| 20260506015034 | 68 | 38 | 1.0 | 2.0 | 0.00 | 0.00 | 0.00 | 84 | 1016.1 |
| 20260506014546 | 68 | 38 | 1.0 | 2.0 | 0.00 | 0.00 | 0.00 | 84 | 1016.1 |
| 20260506014031 | 68 | 38 | 1.0 | 3.0 | 0.00 | 0.00 | 0.00 | 84 | 1016.0 |
| 20260506013534 | 69 | 30 | 1.0 | 3.0 | 0.00 | 0.00 | 0.00 | 83 | 1016.0 |
| 20260506013045 | 69 | 28 | 2.0 | 3.0 | 0.00 | 0.00 | 0.00 | 83 | 1015.8 |
| 20260506012534 | 69 | 30 | 1.0 | 3.0 | 0.00 | 0.00 | 0.00 | 83 | 1015.9 |
| 20260506012035 | 69 | 11 | 1.0 | 3.0 | 0.00 | 0.00 | 0.00 | 83 | 1015.9 |
| 20260506011548 | 69 | 11 | 0.0 | 3.0 | 0.00 | 0.00 | 0.00 | 83 | 1015.9 |
| 20260506011035 | 69 | 11 | 1.0 | 3.0 | 0.00 | 0.00 | 0.00 | 83 | 1015.8 |
| 20260506010534 | 69 | 30 | 2.0 | 3.0 | 0.00 | 0.00 | 0.00 | 82 | 1015.7 |
| 20260506010043 | 70 | 30 | 1.0 | 4.0 | 0.00 | 0.00 | 0.00 | 83 | 1015.7 |
| 20260506005534 | 70 | 30 | 2.0 | 4.0 | 0.00 | 0.00 | 0.00 | 82 | 1015.7 |
| 20260506005034 | 70 | 31 | 2.0 | 4.0 | 0.00 | 0.00 | 0.00 | 82 | 1015.5 |
| 20260506004546 | 70 | 41 | 2.0 | 3.0 | 0.00 | 0.00 | 0.00 | 82 | 1015.4 |
| 20260506004034 | 70 | 44 | 2.0 | 4.0 | 0.00 | 0.00 | 0.00 | 82 | 1015.4 |
| 20260506003534 | 71 | 40 | 2.0 | 5.0 | 0.00 | 0.00 | 0.00 | 81 | 1015.3 |
| 20260506003047 | 71 | 65 | 2.0 | 5.0 | 0.00 | 0.00 | 0.00 | 81 | 1015.2 |
| 20260506002532 | 71 | 60 | 3.0 | 5.0 | 0.00 | 0.00 | 0.00 | 81 | 1015.3 |
| 20260506002033 | 71 | 49 | 3.0 | 6.0 | 0.00 | 0.00 | 0.00 | 80 | 1015.3 |
| 20260506001551 | 72 | 36 | 4.0 | 6.0 | 0.00 | 0.00 | 0.00 | 80 | 1015.2 |
| 20260506001032 | 72 | 36 | 3.0 | 6.0 | 0.00 | 0.00 | 0.00 | 80 | 1015.3 |
| 20260506000534 | 72 | 51 | 3.0 | 9.0 | 0.00 | 0.00 | 0.00 | 80 | 1015.1 |
| 20260506000056 | 73 | 40 | 4.0 | 9.0 | 0.00 | 0.00 | 0.00 | 79 | 1015.1 |
| 20260505235534 | 73 | 49 | 4.0 | 11.0 | 0.00 | 0.00 | 0.00 | 79 | 1015.1 |
| 20260505235037 | 73 | 40 | 6.0 | 11.0 | 0.00 | 0.00 | 0.00 | 78 | 1015.2 |
| 20260505234543 | 73 | 46 | 4.0 | 11.0 | 0.00 | 0.00 | 0.00 | 78 | 1015.2 |
| 20260505234034 | 73 | 74 | 5.0 | 10.0 | 0.00 | 0.00 | 0.00 | 78 | 1015.3 |
| 20260505233532 | 74 | 57 | 5.0 | 11.0 | 0.00 | 0.00 | 0.00 | 78 | 1015.2 |
| 20260505233048 | 74 | 28 | 6.0 | 13.0 | 0.00 | 0.00 | 0.00 | 77 | 1015.2 |
| 20260505232534 | 74 | 26 | 7.0 | 15.0 | 0.00 | 0.00 | 0.00 | 76 | 1015.2 |
| 20260505232036 | 74 | 38 | 9.0 | 15.0 | 0.00 | 0.00 | 0.00 | 76 | 1015.1 |
| 20260505231553 | 75 | 42 | 9.0 | 14.0 | 0.00 | 0.00 | 0.00 | 76 | 1015.1 |
| 20260505231034 | 75 | 20 | 8.0 | 14.0 | 0.00 | 0.00 | 0.00 | 76 | 1015.1 |
| 20260505230533 | 75 | 34 | 6.0 | 14.0 | 0.00 | 0.00 | 0.00 | 76 | 1015.0 |
| 20260505230050 | 75 | 31 | 5.0 | 14.0 | 0.00 | 0.00 | 0.00 | 76 | 1015.1 |
| 20260505225534 | 76 | 26 | 9.0 | 16.0 | 0.00 | 0.00 | 0.00 | 76 | 1015.1 |
| 20260505225033 | 76 | 5 | 7.0 | 16.0 | 0.00 | 0.00 | 0.00 | 76 | 1015.1 |
| 20260505224548 | 76 | 27 | 9.0 | 15.0 | 0.00 | 0.00 | 0.00 | 75 | 1015.1 |
| 20260505224034 | 76 | 9 | 10.0 | 17.0 | 0.00 | 0.00 | 0.00 | 75 | 1015.1 |
| 20260505223533 | 76 | 39 | 11.0 | 17.0 | 0.00 | 0.00 | 0.00 | 75 | 1015.0 |
| 20260505223045 | 76 | 55 | 12.0 | 17.0 | 0.00 | 0.00 | 0.00 | 75 | 1014.9 |
| 20260505222537 | 76 | 56 | 8.0 | 15.0 | 0.00 | 0.00 | 0.00 | 75 | 1014.9 |
| 20260505222038 | 76 | 40 | 9.0 | 15.0 | 0.00 | 0.00 | 0.00 | 75 | 1014.9 |
| 20260505221551 | 76 | 12 | 9.0 | 16.0 | 0.00 | 0.00 | 0.00 | 75 | 1014.9 |
| 20260505221035 | 77 | 34 | 10.0 | 16.0 | 0.00 | 0.00 | 0.00 | 74 | 1014.9 |
| 20260505220534 | 77 | 45 | 10.0 | 15.0 | 0.00 | 0.00 | 0.00 | 74 | 1014.9 |
| 20260505220049 | 77 | 40 | 10.0 | 15.0 | 0.00 | 0.00 | 0.00 | 73 | 1014.9 |
| 20260505215537 | 77 | 38 | 9.0 | 14.0 | 0.00 | 0.00 | 0.00 | 73 | 1014.8 |
| 20260505215035 | 77 | 15 | 8.0 | 15.0 | 0.00 | 0.00 | 0.00 | 72 | 1014.7 |
| 20260505214554 | 77 | 13 | 8.0 | 16.0 | 0.00 | 0.00 | 0.00 | 72 | 1014.7 |
| 20260505214032 | 77 | 44 | 10.0 | 16.0 | 0.00 | 0.00 | 0.00 | 72 | 1014.6 |
| 20260505213531 | 78 | 67 | 10.0 | 16.0 | 0.00 | 0.00 | 0.00 | 71 | 1014.6 |
| 20260505213045 | 78 | 42 | 9.0 | 16.0 | 0.00 | 0.00 | 0.00 | 71 | 1014.6 |
| 20260505212532 | 78 | 53 | 11.0 | 16.0 | 0.00 | 0.00 | 0.00 | 70 | 1014.5 |
| 20260505212035 | 79 | 68 | 10.0 | 16.0 | 0.00 | 0.00 | 0.00 | 70 | 1014.6 |
| 20260505211614 | 78 | 26 | 9.0 | 15.0 | 0.00 | 0.00 | 0.00 | 70 | 1014.6 |
| 20260505211035 | 78 | 34 | 9.0 | 17.0 | 0.00 | 0.00 | 0.00 | 70 | 1014.6 |
| 20260505210534 | 78 | 43 | 9.0 | 17.0 | 0.00 | 0.00 | 0.00 | 70 | 1014.6 |
| 20260505210046 | 78 | 76 | 10.0 | 15.0 | 0.00 | 0.00 | 0.00 | 70 | 1014.6 |
| 20260505205535 | 79 | 55 | 10.0 | 15.0 | 0.00 | 0.00 | 0.00 | 69 | 1014.7 |
| 20260505205036 | 78 | 27 | 6.0 | 17.0 | 0.00 | 0.00 | 0.00 | 70 | 1014.6 |
| 20260505204602 | 78 | 20 | 8.0 | 17.0 | 0.00 | 0.00 | 0.00 | 69 | 1014.6 |
| 20260505204032 | 79 | 75 | 12.0 | 16.0 | 0.00 | 0.00 | 0.00 | 68 | 1014.6 |
| 20260505203535 | 79 | 47 | 10.0 | 16.0 | 0.00 | 0.00 | 0.00 | 68 | 1014.7 |
| 20260505203047 | 79 | 92 | 10.0 | 16.0 | 0.00 | 0.00 | 0.00 | 68 | 1014.7 |
| 20260505202535 | 79 | 36 | 8.0 | 16.0 | 0.00 | 0.00 | 0.00 | 68 | 1014.8 |
| 20260505202034 | 78 | 5 | 8.0 | 16.0 | 0.00 | 0.00 | 0.00 | 69 | 1014.9 |
| 20260505201545 | 78 | 40 | 10.0 | 16.0 | 0.00 | 0.00 | 0.00 | 68 | 1014.8 |
| 20260505201034 | 78 | 30 | 7.0 | 14.0 | 0.00 | 0.00 | 0.00 | 68 | 1015.0 |
| 20260505200534 | 78 | 40 | 10.0 | 14.0 | 0.00 | 0.00 | 0.00 | 68 | 1014.9 |
| 20260505200044 | 79 | 44 | 8.0 | 14.0 | 0.00 | 0.00 | 0.00 | 68 | 1014.9 |
| 20260505195534 | 79 | 32 | 8.0 | 17.0 | 0.00 | 0.00 | 0.00 | 68 | 1014.8 |
| 20260505195032 | 78 | 49 | 9.0 | 17.0 | 0.00 | 0.00 | 0.00 | 68 | 1014.8 |
| 20260505194542 | 78 | 49 | 10.0 | 16.0 | 0.00 | 0.00 | 0.00 | 69 | 1014.8 |
| 20260505194035 | 78 | 33 | 9.0 | 14.0 | 0.00 | 0.00 | 0.00 | 69 | 1015.0 |
| 20260505193534 | 78 | 35 | 9.0 | 17.0 | 0.00 | 0.00 | 0.00 | 68 | 1015.0 |
| 20260505193045 | 79 | 47 | 8.0 | 17.0 | 0.00 | 0.00 | 0.00 | 68 | 1015.0 |
| 20260505192534 | 79 | 36 | 10.0 | 16.0 | 0.00 | 0.00 | 0.00 | 67 | 1015.0 |
| 20260505192034 | 79 | 81 | 7.0 | 16.0 | 0.00 | 0.00 | 0.00 | 67 | 1015.0 |
| 20260505191548 | 79 | 42 | 9.0 | 14.0 | 0.00 | 0.00 | 0.00 | 66 | 1015.0 |
| 20260505191034 | 79 | 360 | 7.0 | 14.0 | 0.00 | 0.00 | 0.00 | 68 | 1015.0 |
| 20260505190536 | 79 | 39 | 10.0 | 16.0 | 0.00 | 0.00 | 0.00 | 67 | 1015.2 |
| 20260505190044 | 79 | 61 | 8.0 | 16.0 | 0.00 | 0.00 | 0.00 | 68 | 1015.4 |
| 20260505185533 | 78 | 44 | 10.0 | 16.0 | 0.00 | 0.00 | 0.00 | 68 | 1015.5 |
| 20260505185035 | 79 | 44 | 7.0 | 14.0 | 0.00 | 0.00 | 0.00 | 67 | 1015.6 |
| 20260505184545 | 79 | 30 | 7.0 | 12.0 | 0.00 | 0.00 | 0.00 | 68 | 1015.8 |
| 20260505184032 | 78 | 42 | 8.0 | 14.0 | 0.00 | 0.00 | 0.00 | 68 | 1015.8 |
| 20260505183534 | 78 | 360 | 8.0 | 14.0 | 0.00 | 0.00 | 0.00 | 68 | 1015.8 |
| 20260505183042 | 78 | 20 | 9.0 | 15.0 | 0.00 | 0.00 | 0.00 | 68 | 1015.8 |
| 20260505182534 | 78 | 360 | 8.0 | 15.0 | 0.00 | 0.00 | 0.00 | 68 | 1016.0 |
| 20260505182032 | 79 | 49 | 9.0 | 15.0 | 0.00 | 0.00 | 0.00 | 67 | 1015.9 |